Location: *
(38.0758°N, 104.9861°W)
Time: 00:27:26
(UTC+00:00)

Daily predictions for brighter satellites

Satellite Brightness Start Highest point End
(mag) Time Altitude Azimuth Time Altitude Azimuth Time Altitude Azimuth
Cosmos 2360 Rocket 2.6 02:41:44 10° S 02:46:57 40° ESE 02:52:11 10° NE
COSMOS 2428 4.5 02:45:18 10° ESE 02:47:27 12° E 02:49:36 10° ENE
SJ-11-01 4.4 02:43:11 10° S 02:47:50 83° WSW 02:52:32 10° NNW
USA 186 2.1 02:50:50 10° S 02:53:28 49° W 02:55:55 10° NNW
Cosmos 2151 3.1 02:49:24 10° S 02:53:34 55° E 02:57:46 10° NNE
BREEZE-M DEB (TANK) 3.6 02:51:26 10° SSW 02:54:22 39° SE 03:01:45 10° ENE
NOSS 3-1 (C) 3.8 02:52:36 10° S 02:57:25 34° ESE 03:02:45 10° NE
CZ-2C R/B 4.1 02:56:12 10° NE 02:59:17 16° E 03:02:18 10° SE
TIMED 4.5 02:56:29 10° S 03:00:48 67° ESE 03:05:08 10° NNE
Cosmos 371 Rocket 4.5 02:57:55 10° NNW 03:02:31 43° WSW 03:07:04 10° S
Cosmos 1328 Rocket 4.1 02:59:04 10° N 03:03:10 39° ENE 03:07:12 10° SSE
Iridium 4 Rocket 4.2 02:57:59 10° NNE 03:03:31 43° E 03:08:46 10° SSE
SJ-6B 3.5 03:01:05 10° S 03:04:42 51° W 03:08:21 10° NNW
Cosmos 1464 Rocket 4.0 03:01:38 10° S 03:07:49 66° E 03:13:59 10° NNE
Cosmos 2058 4.2 03:05:54 10° SSW 03:09:56 45° W 03:14:00 10° N
ISS -0.8 03:07:37 10° WNW 03:10:00 18° NNW 03:12:22 10° NNE
Cosmos 1238 Rocket 4.1 03:03:44 10° S 03:10:21 74° E 03:16:49 10° N
DELTA 2 R/B (1) 3.7 03:07:39 10° W 03:13:17 85° N 03:18:54 10° ENE
Resurs 01 Rocket 1.7 03:09:29 10° SSE 03:13:52 61° ENE 03:18:14 10° N
Cosmos 2219 Rocket 3.4 03:10:27 10° SSE 03:14:33 21° E 03:18:39 10° NE
Cosmos 1500 Rocket 4.5 03:11:18 10° SSE 03:15:10 30° E 03:19:05 10° NNE
Cosmos 304 Rocket 3.9 03:10:45 10° NNW 03:15:36 81° WSW 03:20:25 10° SSE
ARGOS 3.2 03:11:32 10° SSE 03:16:57 89° ENE 03:22:23 10° NNW
Cosmos 1869 4.1 03:15:25 10° NNW 03:19:14 51° W 03:23:03 10° S
Cosmos 2322 Rocket 3.3 03:14:45 10° SW 03:20:15 49° WNW 03:25:47 10° NNE
Cosmos 407 Rocket 3.7 03:16:10 10° S 03:21:14 51° ESE 03:26:25 10° NNE
Cosmos 1340 Rocket 3.9 03:19:02 10° NNW 03:22:58 46° W 03:26:51 10° SSW
CZ-2C R/B 3.3 03:18:39 12° SSE 03:23:25 53° ENE 03:28:22 10° N
Cosmos 1408 3.2 03:21:54 14° SSE 03:24:46 38° E 03:28:14 10° NNE
Cosmos 1892 2.8 03:22:56 10° S 03:26:46 79° W 03:30:36 10° N
ADEOS Rocket 2.7 03:21:36 10° NNE 03:27:07 72° ESE 03:32:39 10° S
SL-08 RB Rocket 3.6 03:22:53 10° SSE 03:27:22 86° E 03:31:51 10° N
SL-16 R/B 3.9 03:24:15 10° SW 03:29:26 36° WNW 03:34:39 10° N
H-2A R/B 2.5 03:25:32 10° S 03:30:55 66° WSW 03:36:15 10° NNW
Cosmos 1190 Rocket 4.0 03:26:35 10° S 03:31:38 57° ESE 03:36:45 10° NNE
Cosmos 2278 Rocket 4.5 03:31:53 10° NE 03:32:53 10° NE 03:33:54 10° ENE
SL-8 R/B 4.5 03:30:33 10° NW 03:35:08 44° NNE 03:38:44 16° E
Cosmos 1844 Rocket 3.4 03:30:55 10° N 03:36:14 40° ENE 03:39:38 20° ESE
USA 229 DEB 3.6 03:30:37 10° SSW 03:37:11 90° NE 03:44:01 10° NNE
USA 229 3.6 03:30:44 10° SSW 03:37:16 89° SE 03:44:07 10° NNE
EP 3 3.9 03:37:50 49° E 03:37:50 49° E 03:39:42 10° NE
MetOp-B 4.4 03:33:57 18° SE 03:37:47 54° ENE 03:43:00 10° N
Cosmos 2333 Rocket 2.9 03:34:09 12° SSE 03:38:42 34° ESE 03:43:45 10° NE
BREEZE-M DEB (TANK) 3.0 03:34:58 10° SSW 03:39:36 50° SE 03:43:56 10° ENE
Terra 3.9 03:38:46 11° E 03:40:29 13° ENE 03:42:34 10° NE
NOSS 3-1 (A) 3.4 03:35:31 10° S 03:40:39 48° ESE 03:46:26 10° NE
Cosmos 1933 4.1 03:37:07 10° N 03:40:51 35° ENE 03:42:23 26° ESE
Cosmos 2263 Rocket 3.5 03:37:34 10° NW 03:42:43 36° WSW 03:47:49 10° S
Cosmos 1743 Rocket 3.4 03:39:34 10° S 03:43:55 76° E 03:48:15 10° N
Cosmos 2322 3.6 03:40:26 10° SSW 03:46:04 79° ESE 03:51:45 10° NNE
GPS 2-05 Rocket1 4.2 03:44:14 10° SW 03:45:35 19° SSW 03:45:35 19° SSW
NOSS 2-3 (E) 4.5 03:51:39 27° ESE 03:51:46 27° ESE 03:55:44 10° NE
MTI 4.5 03:49:47 10° N 03:52:53 53° WNW 03:55:58 10° SSW
Meteor 2-3 Rocket 4.0 03:49:04 19° SSE 03:53:03 51° E 03:58:39 10° NNE
Thor Agena Rocket 4.1 03:49:22 10° NNE 03:54:00 36° E 03:55:43 28° SE
Cosmos 1515 Rocket 3.5 03:51:52 10° N 03:56:13 81° W 03:58:54 23° S
SWARM C 4.5 03:55:33 29° S 03:57:09 84° W 04:00:30 10° N
SWARM A 4.5 03:55:17 22° SSW 03:57:18 67° W 04:00:38 10° N
Cosmos 921 Rocket 4.3 03:56:57 10° NNW 04:00:55 37° W 04:04:16 14° SSW
Spot 2 Rocket 3.6 03:57:48 20° S 04:01:23 75° WSW 04:06:31 10° NNW
USA 215 4.3 03:58:03 10° NE 04:04:16 48° NW 04:10:30 10° WSW
SL-23 DEB 3.6 03:59:48 10° NW 04:04:21 86° NE 04:05:15 48° SE
Meteor 1-26 Rocket 4.4 04:00:54 10° N 04:06:22 53° ENE 04:08:36 33° SE
Cosmos 1805 Rocket 3.8 04:07:07 39° SE 04:08:08 47° E 04:12:18 10° NNE
Lacrosse 5 rocket 4.2 04:08:40 10° N 04:10:17 12° NNE 04:11:53 10° NE
Cosmos 1607 4.1 04:08:19 10° NNW 04:14:25 59° ENE 04:17:06 33° ESE
Cosmos 2084 Rocket 3.7 04:11:37 10° NNW 04:15:55 58° NE 04:16:56 44° ESE
Cosmos 1606 2.6 04:12:27 10° N 04:16:11 61° E 04:16:34 57° ESE
Nadezhda 4 Rocket 4.3 04:11:19 10° NNW 04:17:31 65° W 04:22:05 19° S
Cosmos 1825 2.9 04:16:37 21° SSW 04:18:53 51° W 04:22:34 10° N
NOSS 0 Rocket 4.3 04:19:08 35° SE 04:20:43 41° ESE 04:26:27 10° NE
SPOT 1/Viking Rocket 3.6 04:19:56 40° SE 04:21:43 66° ENE 04:26:53 10° N
Cosmos 2279 Rocket 4.3 04:20:02 35° SE 04:21:56 45° E 04:27:47 10° NNE
USA 245 4.2 04:25:18 26° NNW 04:25:18 26° NNW 04:26:32 10° NNW
CARTOSAT-1 3.9 04:24:54 44° E 04:25:23 46° ENE 04:29:31 10° N
Cosmos 1782 3.7 04:21:55 10° N 04:25:25 35° ENE 04:25:25 35° ENE
Cosmos 1633 Rocket 4.0 04:28:14 32° ENE 04:28:14 32° ENE 04:31:34 10° NNE
Cosmos 1666 Rocket 4.0 04:29:23 44° E 04:29:23 44° E 04:33:35 10° NNE
Cosmos 1980 4.1 04:29:51 39° ESE 04:30:06 39° ESE 04:35:21 10° NE
Cosmos 1844 3.6 04:24:32 10° NNW 04:30:12 88° ENE 04:32:07 44° SSE
COSMOS 2428 2.8 04:25:10 10° SSW 04:30:53 80° WNW 04:36:39 10° NNE
Cosmos 2360 Rocket 4.3 04:26:18 10° WSW 04:31:02 27° WNW 04:35:47 10° N
USA 267 3.5 04:33:00 32° ESE 04:36:10 64° NE 04:42:38 10° NW
Cosmos 2237 Rocket 2.6 04:36:21 41° ESE 04:36:21 41° ESE 04:41:36 10° NE
NOSS 2-3 (C) 3.5 04:35:49 50° SSW 04:36:55 79° ESE 04:41:48 10° NE
IGS 5A 3.3 04:37:59 73° SSE 04:38:22 89° E 04:42:33 10° NNW
Sich 1 2.8 04:38:59 74° SE 04:39:13 77° E 04:43:30 10° N
CZ-2C R/B 3.2 04:34:51 10° N 04:39:54 55° WNW 04:43:48 17° SW
Cosmos 1092 Rocket 4.2 04:34:14 10° NNW 04:40:23 66° W 04:43:27 30° SSW
Cosmos 1818 3.5 04:36:17 10° NNW 04:41:47 85° ENE 04:42:59 56° SE
Cosmos 292 Rocket 4.3 04:41:50 10° NNW 04:46:31 51° WSW 04:47:39 41° SW
Landsat 7 4.0 04:47:18 50° SSW 04:48:20 65° WSW 04:53:05 10° NNW
SPOT 5 2.8 04:47:43 61° S 04:48:36 87° WSW 04:53:26 10° NNW
Resurs 01 Rocket 4.4 04:49:40 10° WSW 04:50:42 11° W 04:51:44 10° WNW
Cosmos 1741 Rocket 3.8 04:55:55 69° SE 04:56:17 72° ESE 05:01:30 10° NNE
Cosmos 2219 Rocket 3.0 04:52:35 10° SW 04:58:04 50° WNW 05:03:35 10° NNE
Meteor 1-10 Rocket 4.4 04:53:07 10° N 04:58:42 56° ENE 04:59:21 53° ESE
ERS-1 Rocket 3.5 04:57:32 42° SW 04:58:45 51° W 05:03:40 10° NNW
Meteor 2-6 Rocket 4.2 04:54:06 10° N 04:59:34 63° E 05:00:08 59° ESE
DELTA 2 R/B (1) 3.6 04:54:18 10° W 04:59:55 80° N 05:01:22 51° E
Cosmos 1867 4.0 04:58:42 14° SW 05:03:21 62° WNW 05:08:48 10° NNE
Cosmos 1850 Rocket 3.9 05:03:34 66° SSW 05:04:23 90° ESE 05:09:45 10° NNE
Cosmos 2026 Rocket 4.3 05:02:09 10° NNW 05:08:07 58° W 05:10:11 39° SSW
ATLAS CENTAUR R/B 2.3 05:11:20 10° NNW 05:15:21 46° NNE 05:15:21 46° NNE
Terra 1.9 05:17:39 66° W 05:17:39 66° W 05:22:22 10° NNW
Cosmos 2278 Rocket 2.1 05:12:22 10° NNW 05:18:02 70° ENE 05:18:22 68° E
Cosmos 1844 Rocket 4.2 05:15:14 10° NW 05:19:52 26° WSW 05:21:19 24° SW
Lacrosse 4 Rocket 3.4 05:23:35 21° NE 05:23:35 21° NE 05:25:14 10° NE
Lacrosse 5 3.6 05:17:50 10° NNW 05:21:59 24° NNE 05:23:29 21° ENE
Cosmos 2333 Rocket 3.8 05:17:50 10° WSW 05:22:54 32° WNW 05:27:59 10° N
Cosmos 1763 Rocket 3.9 05:22:31 10° N 05:27:20 53° NE 05:27:20 53° NE
Mayak 0.2 05:26:31 10° NNE 05:28:57 32° NE 05:28:57 32° NE
Cosmos 1655 Rocket 4.0 05:27:54 10° NNW 05:34:05 71° W 05:34:55 63° SW
ASTEX 1 4.1 05:29:57 10° N 05:34:46 48° W 05:35:14 46° W
Cosmos 468 Rocket 4.0 05:32:15 10° NNW 05:37:10 77° NNW 05:37:10 77° NNW
BREEZE-M DEB (TANK) 4.1 05:14:51 10° WNW 05:40:08 89° SW 05:42:20 54° SE
MOS 1 Rocket 4.3 05:36:25 10° N 05:40:43 39° WNW 05:41:17 38° W
Meteor 1-27 Rocket 3.7 05:38:30 10° N 05:44:25 84° ENE 05:44:25 84° ENE
Spot 4 4.4 05:46:09 52° NNE 05:46:09 52° NNE 05:49:57 10° N
Lacrosse 5 rocket 2.8 05:46:13 10° NNW 05:49:43 39° N 05:49:43 39° N
COSMOS 2455 3.0 05:57:52 63° W 05:58:28 67° WNW 06:04:30 10° NNE
Cosmos 2285 Rocket 3.9 05:58:59 86° ENE 05:58:59 86° ENE 06:05:13 10° NNE
Cosmos 2266 Rocket 4.0 05:53:27 10° N 05:59:45 72° W 05:59:56 71° WSW
Cosmos 724 4.4 05:57:25 10° NNW 06:02:52 69° WNW 06:02:52 69° WNW
Nimbus 7 Rocket 4.4 05:58:03 10° N 06:04:00 75° WNW 06:04:09 75° W
SL-16 R/B 2.4 06:07:05 65° NNE 06:07:05 65° NNE 06:11:54 10° NNE
USA 267 4.2 06:20:20 32° WSW 06:20:20 32° WSW 06:25:12 10° WNW
Cosmos 2237 Rocket 3.9 06:18:07 20° W 06:20:30 27° WNW 06:25:13 10° N
ATLAS 2AS CENTAUR R/B 3.5 06:23:20 44° E 06:23:20 44° E 06:30:07 10° NE
ALOS 2 4.1 06:26:32 35° N 06:26:32 35° N 06:29:07 10° N
ISS -0.3 06:24:30 10° N 06:25:11 11° N 06:25:11 11° N
Nadezhda 2 Rocket 4.5 06:25:53 10° N 06:31:34 75° NW 06:31:34 75° NW
Cosmos 540 Rocket 4.2 06:27:03 10° NNW 06:30:46 49° NNW 06:30:46 49° NNW
Cosmos 1943 Rocket 3.4 06:39:02 10° N 06:43:55 31° ENE 06:43:58 31° ENE
ATLAS 5 CENTAUR R/B 2.9 06:39:26 10° NNW 06:45:16 53° NE 06:45:31 53° ENE
SeaSat 1 3.3 06:40:33 10° NNE 06:44:00 46° NNE 06:44:00 46° NNE
Cosmos 1745 Rocket 4.3 06:42:59 10° N 06:48:42 57° ENE 06:48:42 57° ENE
Lacrosse 4 Rocket 3.9 06:59:52 19° NW 06:59:52 19° NW 07:03:01 10° N
Cosmos 2278 Rocket 4.4 06:58:31 10° WNW 07:00:12 13° W 07:00:12 13° W
Lacrosse 5 3.5 07:00:18 10° NW 07:02:38 27° NW 07:02:38 27° NW
Mayak 1.6 07:04:18 10° NW 07:05:32 12° WNW 07:05:32 12° WNW
Cosmos 968 Rocket 4.3 07:11:04 46° N 07:11:04 46° N 07:14:42 10° NNE
Cosmos 2369 Rocket 2.6 07:19:16 10° NNW 07:24:12 58° NNE 07:24:12 58° NNE
NOSS 3-4 (A) 3.8 07:28:45 54° ENE 07:28:45 54° ENE 07:33:47 10° NE
NOSS 3-4 (C) 3.8 07:28:52 54° ENE 07:28:52 54° ENE 07:33:52 10° NE
Meteor 1-11 Rocket 4.2 07:28:56 55° NE 07:28:56 55° NE 07:33:36 10° NNE
Cosmos 1603 4.3 07:38:09 52° NW 07:38:09 52° NW 07:43:02 10° NNE
CZ-4B R/B 4.4 07:36:25 10° NNE 07:39:49 41° NE 07:39:49 41° NE
CENTAUR R/B 3.9 07:36:03 10° NNW 07:43:51 49° NE 07:50:38 16° ESE
NOSS 3-2 (A) 4.0 07:39:58 10° NNW 07:47:44 88° WSW 07:48:55 70° SSE
BREEZE M DEB (TANK) 4.0 07:48:27 39° NW 07:49:25 44° NNW 08:00:05 10° ENE
ATLAS 3B R/B 3.2 07:45:36 10° NNW 07:52:07 54° NE 07:54:21 38° ESE
Meteor 2-21 Rocket 4.5 07:48:26 10° N 07:53:56 73° NNW 07:53:56 73° NNW
BREEZE-M DEB (TANK) 4.3 07:50:30 10° NW 07:55:22 86° NE 08:19:17 10° SE
H-2A R/B 3.9 07:57:35 27° ENE 07:57:35 27° ENE 08:01:15 10° NNE
Cosmos 1656 Rocket 4.3 07:55:24 10° NNW 08:00:56 51° ENE 08:01:20 50° ENE
Cosmos 1943 3.9 08:04:58 46° NW 08:04:58 46° NW 08:10:04 10° N
Meteor 1-23 Rocket 4.3 08:03:11 10° N 08:08:47 74° NE 08:08:47 74° NE
Resurs 1-4 Rocket 3.1 08:07:40 10° NNE 08:12:17 38° E 08:12:17 38° E
Cosmos 2074 Rocket 4.4 08:06:46 10° N 08:12:57 56° E 08:13:49 52° ESE
ATLAS 2AS CENTAUR R/B 3.8 08:10:45 33° W 08:13:36 44° NW 08:21:17 10° NNE
USA 238 DEB 4.3 08:08:45 10° NW 08:14:33 45° W 08:14:33 45° W
USA 238 4.3 08:08:51 10° NW 08:14:40 45° W 08:14:40 45° W
RESURS DK-1 4.1 08:18:19 30° NE 08:18:19 30° NE 08:20:39 10° NNE
Cosmos 1709 Rocket 4.4 08:13:09 10° NNW 08:18:27 48° WNW 08:18:27 48° WNW
Milstar 3 4.2 08:24:30 21° ESE 08:24:30 21° ESE 08:27:04 10° ESE
Cosmos 773 Rocket 4.4 08:18:03 10° NNW 08:22:15 58° NNW 08:22:15 58° NNW
Nadezhda 1 Rocket 4.3 08:25:42 52° SE 08:26:37 57° E 08:32:50 10° NNE
Cosmos 1943 Rocket 3.6 08:22:42 10° NW 08:25:27 25° WNW 08:25:27 25° WNW
ATLAS 5 CENTAUR R/B 4.1 08:24:38 10° WNW 08:27:01 20° WNW 08:27:01 20° WNW
Cosmos 1066 Rocket 4.1 08:25:22 10° N 08:31:06 82° ENE 08:31:06 82° ENE
Cosmos 1340 4.4 08:34:35 31° NNE 08:34:35 31° NNE 08:36:44 10° NNE
SL-16 R/B 2.7 08:33:48 50° SE 08:35:19 67° ENE 08:41:27 10° N
BREEZE-M DEB (TANK) 4.3 08:38:54 10° WNW 08:42:54 35° NW 08:42:54 35° NW
UNK 4.0 08:46:25 67° NNE 08:46:25 67° NNE 08:50:31 10° N
Cosmos 1975 Rocket 4.4 08:45:36 10° NNW 08:48:08 32° NW 08:48:08 32° NW
CZ-2D R/B 2.0 08:44:50 10° NNE 08:50:20 86° ESE 08:50:37 80° S
ARIANE 5 R/B 3.8 08:51:00 10° NE 08:55:37 32° E 08:56:55 29° SE
Cosmos 1346 Rocket 4.0 08:59:31 36° NNW 08:59:31 36° NNW 09:02:10 10° N
Cosmos 1610 Rocket 4.4 08:52:16 10° N 08:58:29 84° E 08:59:53 56° SSE
CBERS-1 3.9 08:53:29 10° NNE 08:58:38 77° ESE 08:58:56 74° SE
Cosmos 923 Rocket 4.1 08:54:57 10° NNW 09:00:18 73° ENE 09:01:24 55° SE
NOSS 3-2 (C) 4.3 08:54:38 10° NW 09:02:03 47° WSW 09:02:42 46° SW
Atlas Centaur 2 3.4 09:02:34 38° SSE 09:02:34 38° SSE 09:08:29 10° ESE
SJ 16-02 2.7 09:02:29 30° ESE 09:02:48 30° E 09:06:38 10° NE
deb Chang Zheng 4 3.7 08:59:10 10° NNE 09:03:03 67° ENE 09:03:03 67° ENE
Cosmos 2154 Rocket 4.0 08:57:15 10° N 09:03:38 83° E 09:05:32 49° SSE
Cosmos 2369 Rocket 4.3 09:05:04 10° WNW 09:05:56 12° WNW 09:05:56 12° WNW
Meteor 2-15 4.4 09:10:00 56° WSW 09:10:51 62° W 09:16:52 10° N
Cosmos 1937 Rocket 3.8 09:19:47 45° SSE 09:21:00 57° ESE 09:26:10 10° NNE
Cosmos 1680 Rocket 3.4 09:19:03 10° NNW 09:24:22 89° W 09:26:01 46° SSE
SL-4 R/B 2.4 09:19:51 10° NW 09:24:28 70° NE 09:28:43 10° ESE
Cosmos 1378 3.4 09:24:24 10° N 09:27:36 64° N 09:27:36 64° N
Cosmos 1898 Rocket 3.4 09:27:38 58° SSW 09:28:43 85° WNW 09:34:04 10° NNE
Okean 2 Rocket 4.5 09:30:25 25° WNW 09:30:25 25° WNW 09:33:39 10° NNW
AQUA 4.3 09:26:48 10° N 09:31:18 43° WNW 09:31:39 43° W
H-2A R/B 3.7 09:34:41 23° WNW 09:34:41 23° WNW 09:37:11 10° NW
IRS-1C 4.1 09:28:18 10° N 09:33:38 75° WNW 09:35:00 51° SW
CENTAUR R/B 3.5 09:26:56 10° NW 09:34:40 44° WSW 09:37:38 34° SSW
SL-8 Rocket 4.4 09:28:34 10° N 09:34:49 61° E 09:40:16 14° SSE
COSMOS 2406 3.1 09:35:02 47° SSW 09:36:45 88° ESE 09:42:28 10° NNE
Cosmos 1536 Rocket 3.8 09:33:41 10° NNW 09:37:58 51° W 09:37:58 51° W
CZ-2D R/B 4.2 09:34:49 10° NNE 09:39:06 52° E 09:40:38 35° SSE
Cosmos 2084 4.1 09:37:02 10° NNW 09:41:08 53° NE 09:45:07 10° SE
ATLAS 3B R/B 3.6 09:36:56 10° NW 09:41:31 27° W 09:41:31 27° W
Aureole 2 Rocket 2.8 09:40:01 10° NNW 09:42:29 49° N 09:42:29 49° N
IRS-1D 4.0 09:42:10 10° N 09:46:51 43° WNW 09:47:53 38° WSW
Cosmos 1707 3.9 09:43:59 10° N 09:47:38 39° E 09:50:16 17° SE
SL-08 R/B 3.4 09:47:35 49° SW 09:48:23 56° W 09:53:04 10° NNW
CZ-4B R/B 1.3 09:49:20 73° E 09:49:22 73° ENE 09:52:27 10° N
Cosmos 2181 Rocket 3.9 09:46:38 33° SSW 09:49:37 81° W 09:55:52 10° N
Cosmos 962 Rocket 4.4 09:45:01 10° NNW 09:51:05 64° W 09:54:00 31° SSW
Resurs 1-4 Rocket 3.4 09:47:55 10° NNW 09:52:10 25° WNW 09:53:22 23° W
Aureole 3 3.2 09:51:58 48° SE 09:52:23 53° E 09:55:42 10° NNE
ADEOS II 2.0 09:47:14 10° N 09:52:31 82° WNW 09:54:43 36° SSW
Cosmos 1833 Rocket 3.4 09:50:01 23° S 09:53:15 48° ESE 09:58:39 10° NE
Landsat 5 3.8 09:53:17 47° SW 09:53:47 50° W 09:58:00 10° NNW
Cosmos 1544 3.1 09:58:55 55° WSW 09:59:16 59° W 10:02:57 10° N
Cosmos 1656 4.3 10:01:20 10° NNW 10:06:59 58° ENE 10:12:33 10° SE
Cosmos 44 4.5 10:03:01 10° NNW 10:07:18 39° NE 10:11:23 10° SE
Cosmos 1025 Rocket 4.0 10:04:46 10° NNW 10:08:34 29° W 10:08:48 29° W
Okean 1 Rocket 4.1 10:17:13 26° WSW 10:18:20 30° WNW 10:22:17 10° NNW
Cosmos 1959 Rocket 4.4 10:12:13 10° N 10:18:31 75° W 10:24:43 10° S
SL-16 R/B 4.0 10:18:54 17° W 10:19:22 17° W 10:23:19 10° NW
Cosmos 405 3.6 10:17:20 10° NNW 10:20:34 34° W 10:20:52 33° WSW
Meteor 1-15 Rocket 4.2 10:19:23 19° SSW 10:23:38 83° W 10:29:16 10° N
CBERS 1 LM4 rocket 4.3 10:21:04 10° NNE 10:25:51 89° E 10:29:38 17° SSW
Cosmos 158 Rocket 4.0 10:21:16 10° NNW 10:26:14 57° WSW 10:31:18 10° S
CZ-2D R/B 4.2 10:27:24 10° NW 10:29:36 12° WNW 10:31:47 10° W
SL-27 R/B 4.4 10:28:09 10° SSE 10:30:57 25° E 10:33:48 10° NE
Cosmos 2082 Rocket 2.3 10:27:39 16° SSW 10:32:11 75° ESE 10:37:48 10° NNE
Cosmos 2366 rocket 4.0 10:27:44 10° NNW 10:33:45 58° W 10:39:46 10° S
ARIANE 5 R/B 3.7 10:30:15 10° N 10:34:35 28° WNW 10:37:14 18° WSW
Cosmos 1689 Rocket 2.8 10:34:47 30° WSW 10:35:13 32° W 10:37:56 10° NNW
CZ-2C R/B 3.5 10:35:32 10° N 10:38:59 35° WNW 10:40:52 22° SW
Cosmos 2298 Rocket 4.3 10:36:27 20° SW 10:39:59 53° WNW 10:45:11 10° N
SJ 16-02 2.9 10:39:29 16° W 10:41:23 21° WNW 10:44:46 10° NNW
Okean 1-7 Rocket 3.7 10:37:09 10° NNW 10:41:36 57° W 10:45:59 10° S
PSLV R/B 2.8 10:41:49 12° WNW 10:44:19 77° NNE 10:47:07 10° ESE
PSLV R/B 4.0 10:41:47 10° SSE 10:45:51 83° ENE 10:50:00 10° N
Cosmos 1441 Rocket 3.7 10:44:09 19° SW 10:46:31 43° WNW 10:50:16 10° N
TELKOM 3 3.7 10:46:08 24° SSW 10:47:09 39° SE 10:49:12 10° ENE
Cosmos 1544 Rocket 3.5 10:43:25 13° SSW 10:47:15 70° W 10:51:34 10° N
Cosmos 2150 Rocket 4.4 10:44:46 17° SW 10:48:31 48° WNW 10:53:31 10° N
Cosmos 2369 3.7 10:43:17 10° NNW 10:48:58 89° ENE 10:54:37 10° SSE
Atlas Centaur 2 3.0 10:45:10 14° WSW 10:51:10 44° S 10:56:58 10° ESE
USA 215 3.5 10:44:46 10° SE 10:51:15 74° NE 10:57:47 10° NW
ADEOS 3.6 10:50:06 10° N 10:55:18 69° WNW 11:00:28 10° SSW
Cosmos 1455 Rocket 3.5 10:52:58 14° SSW 10:56:30 44° W 11:00:40 10° N
Cosmos 405 Rocket 3.1 10:53:04 10° S 10:57:05 72° E 11:01:09 10° NNE
Meteor 1-4 Rocket 4.3 10:54:24 10° N 10:57:50 37° ENE 11:01:16 10° SSE
GPS 2-04 Rocket1 2.6 10:56:17 16° WSW 10:58:57 52° S 11:02:18 10° E
Cosmos 1821 Rocket 4.1 10:56:28 10° N 11:02:54 88° E 11:09:18 10° S
SL-4 R/B 3.6 11:00:50 10° W 11:03:38 17° SW 11:06:19 10° SSW
Milstar 3 3.6 10:58:05 12° WSW 11:03:47 37° S 11:11:42 10° ESE
Milstar 3 Cent rocket 3.1 11:00:28 13° SW 11:04:07 31° S 11:10:00 10° ESE
H-2A R/B 2.8 11:01:49 10° N 11:06:15 58° WNW 11:10:40 10° SSW
Cosmos 1805 3.3 11:06:18 10° SSW 11:10:09 60° W 11:14:02 10° N
KORONAS-FOTON 4.0 11:09:45 10° N 11:13:41 82° E 11:17:36 10° S
Cosmos 1602 Rocket 3.7 11:13:54 10° N 11:18:23 87° E 11:22:51 10° S
Cosmos 1953 4.4 11:18:51 10° SSE 11:22:22 29° E 11:25:54 10° NNE
Cosmos 1674 2.7 11:18:55 10° NNW 11:22:43 62° W 11:26:31 10° S
Cosmos 1626 Rocket 3.6 11:19:04 10° NNW 11:23:30 65° W 11:27:55 10° S
Cosmos 1470 3.9 11:19:57 10° SSE 11:23:45 47° E 11:27:32 10° NNE
BREEZE-M DEB (TANK) 1.5 11:23:16 10° WSW 11:25:22 62° NNW 11:28:27 10° NE
Cosmos 1048 Rocket 4.0 11:20:57 10° NNW 11:26:03 64° WSW 11:31:05 10° S
MSX 3.9 11:20:29 10° NNE 11:26:17 86° WNW 11:32:03 10° SSW
IDEFIX/ARIANE 42P 2.8 11:21:41 10° N 11:26:43 53° WNW 11:31:44 10° SSW
Cosmos 1733 3.2 11:23:54 10° SSW 11:27:45 69° W 11:31:37 10° N
Meteor 2-12 Rocket 4.4 11:22:02 10° N 11:28:07 75° W 11:34:08 10° S
Cosmos 1626 4.2 11:27:09 10° NNE 11:30:33 33° ENE 11:33:56 10° SE
CZ-4B R/B 4.4 11:26:47 10° NNE 11:31:13 75° ESE 11:35:42 10° S
Meteor 2-5 Rocket 4.1 11:27:19 10° NNW 11:32:35 43° W 11:37:45 10° SSW
